Regional Weather Roundup
Issued by NWS Sterling, VA

Home | Current Version | Previous Version | Graphics & Text | Print | Product List | Glossary On
Versions: 1 2 3 4 5 6 7 8 9 10 11 12 13 14 15 16 17 18 19 20 21 22 23 24 25 26 27 28 29 30 31 32 33 34 35 36 37 38 39 40 41 42 43 44 45 46 47 48 49 50
000
ASUS41 KLWX 181510
RWRLWX

REGIONAL WEATHER ROUNDUP
NATIONAL WEATHER SERVICE BALTIMORE MD/WASHINGTON DC
1000 AM EST THU DEC 18 2014

Note: "FAIR" indicates few or no clouds below 12,000 feet
with no significant weather and/or obstructions to visibility.
 TC=TEMPERATURE CELSIUS

 * =Non NWS site. Station does not report precipitation (e.g. rain,
    snow, etc.), thunder, or fog.

DCZ001-MDZ009-015-VAZ040>042-051-053>054-181600-
WASHINGTON METRO

CITY           SKY/WX    TMP DP  RH WIND       PRES   REMARKS
WASHINGTON NAT PTSUNNY   39  19  44 NW12G24   30.20R
DULLES         PTSUNNY   34  19  54 W18       30.19R WCI  23
ANDREWS AFB    MOSUNNY   37  20  50 NW16      30.17R WCI  27
QUANTICO       MOSUNNY   39  21  48 VRB7      30.21R
COLLEGE PARK*  CLOUDY    36  21  55 NW12G18   30.18R WCI  27
LEESBURG*      CLOUDY    36  25  64 NW15G21   30.19R WCI  26
MANASSAS*      MOSUNNY   36  21  55 NW14G21   30.19R WCI  27
GAITHERSBURG*  CLOUDY    34  19  55 NW10G16   30.20R WCI  26

$$

MDZ006>007-011-014-181600-
BALTIMORE METRO

CITY           SKY/WX    TMP DP  RH WIND       PRES   REMARKS
BWI AIRPORT    PTSUNNY   36  20  52 W13G24    30.16R WCI  27
MD SCIENCE CTR   N/A     36  19  50 MISG      30.16S
MARTIN STATE   PTSUNNY   39  23  52 W14       30.17R
ANNAPOLIS      MOSUNNY   37  20  50 W15G21    30.17R WCI  28
FORT MEADE*    PTSUNNY   36  23  60 NW10G20   30.19R WCI  28

$$

MDZ012-015-019>023-181600-
MARYLAND EASTERN SHORE

CITY           SKY/WX    TMP DP  RH WIND       PRES   REMARKS
OCEAN CITY     SUNNY     39  22  50 N14G26    30.14R
SALISBURY      SUNNY     41  21  44 NW13G21   30.15R
BAY BRIDGE AP*   N/A     36  21  55 NW17      30.17R WCI  25
CAMBRIDGE*     SUNNY     37  21  52 NW12G22   30.16R
EASTON*        MOSUNNY   39  25  56 NW12G20   30.19R

$$

MDZ017>025-181600-
SOUTHERN MARYLAND

CITY           SKY/WX    TMP DP  RH WIND       PRES   REMARKS
PATUXENT RIVER MOSUNNY   38  22  52 NW15      30.17R
ST INIGOES     SUNNY     39  21  48 W13G18    30.17R
LEONARDTOWN*   SUNNY     36  21  55 NW10G17   30.19R WCI  28

$$

MDZ003>005-181600-
NORTH CENTRAL MARYLAND

CITY           SKY/WX    TMP DP  RH WIND       PRES   REMARKS
FREDERICK*     CLOUDY    36  19  51 NW10      30.20R WCI  28
HAGERSTOWN APT CLOUDY    33  21  61 NW13      30.15R WCI  24
WESTMINSTER*   CLOUDY    32  19  59 NW10G16   30.12R WCI  24

$$

MDZ501>502-181600-
WESTERN MARYLAND

CITY           SKY/WX    TMP DP  RH WIND       PRES   REMARKS
OAKLAND*       CLOUDY    19 N/A N/A W12G18    30.07R HAZE    WCI   7
CUMBERLAND*    CLOUDY    32  21  64 NW5       30.23R

$$

VAZ025>031-181600-
SHENANDOAH VALLEY

CITY           SKY/WX    TMP DP  RH WIND       PRES   REMARKS
WINCHESTER*    CLOUDY    34  18  51 W9        30.18S WCI  26
FRONT ROYAL*   CLOUDY    34  21  60 NW7       30.18R
LURAY*         FAIR      37  23  56 W3        30.18R
NEW MARKET*    FAIR      33  20  59 CALM      30.17R
STAUNTON*      SUNNY     35  20  55 CALM      30.18S
WAYNESBORO*    FAIR      33  20  59 W5        30.15S

$$

WVZ021-048>050-054>055-181600-
EASTERN WEST VIRGINIA PANHANDLE

CITY           SKY/WX    TMP DP  RH WIND       PRES   REMARKS
MARTINSBURG    CLOUDY    34  18  52 W8        30.18R WCI  27
PETERSBURG*    PTSUNNY   33  19  57 W7        30.20R

$$

VAZ036>039-050-181600-
CENTRAL FOOTHILLS

CITY           SKY/WX    TMP DP  RH WIND       PRES   REMARKS
CHARLOTTESVILL SUNNY     37  21  52 VRB3      30.17R
CULPEPER*      SUNNY     37  23  56 N3        30.19S
ORANGE*        SUNNY     37  27  65 CALM      30.19S
GORDONSVILLE*  FAIR      37  20  50 CALM      30.18R
WARRENTON*     FAIR      39  28  63 NW7       30.18S

$$

VAZ055>057-181600-
NORTH AND CENTRAL PIEDMONT

CITY           SKY/WX    TMP DP  RH WIND       PRES   REMARKS
FREDERICKSBRG* SUNNY     39  23  52 N7        30.18S
STAFFORD*      SUNNY     38  21  51 NW10      30.23R

$$

NCZ024-NYZ072-PAZ021-071-VAZ022-071-181600-
OTHER REGIONAL OBSERVATIONS

CITY           SKY/WX    TMP DP  RH WIND       PRES   REMARKS
NEW YORK CITY  PTSUNNY   40  22  48 VRB7G22   30.02R
PHILADELPHIA   CLOUDY    38  21  50 W14G24    30.11R
PITTSBURGH     FLURRIES  28  22  78 W7        30.19R
ROANOKE        PTSUNNY   36  19  51 NW8       30.20
RICHMOND       PTSUNNY   40  22  48 N13       30.18S
RALEIGH        MOSUNNY   42  25  50 CALM      30.19S

$$

ANZ530>537-181600-
MARINE OBSERVATIONS

STATION/POSITION TIME  TEMP    WIND        PRES
                       AIR SEA DIR/SP/G
                 (UTC) (F)     (DEG/KT/KT) (MB)
THOMAS PT LIGHT  1500   36 41  300/ 18/ 20 1022.5R
BALT KEY BRIDGE  1500   36     290/ 13/ 15 1021.1R
COVE POINT       1500   35     350/ 18/ 21 1021.5R
LEWISETTA        1500   38 43  350/ 13/ 18 1021.8R
SOLOMONS ISLAND  1400      44                N/A
PINEY POINT      1500          340/ 17/ 19   N/A

$$




USA.gov is the U.S. government's official web portal to all federal, state and local government web resources and services.